Location: Colonia Mina de C?rbuni
(46.1667°N, 22.7167°E)
Time: 18:47:38
(UTC+00:00)

S3M - Pass Details

Date: 04 February 2023
Orbit: 948 x 1005 km, 83.0° (Epoch: 30 March)

Event Time Altitude Azimuth Distance (km) Brightness Sun altitude
Rises 17:08:33 0° 169° (S) 3,717 7.0 -15.9°
Reaches altitude 10° 17:11:09 10° 164° (SSE) 2,772 6.3 -16.4°
Maximum altitude 17:17:16 51° 91° (E) 1,246 4.2 -17.4°
Drops below altitude 10° 17:23:24 10° 18° (NNE) 2,779 6.2 -18.5°
Sets 17:26:00 0° 13° (NNE) 3,727 6.9 -18.9°
